This demonstration page uses our WeatherBlox Daily Observations layout. Learn more.

Left ArrowRight Arrow

Hourly Observations for March 2, 2022

Temp ( °F °C ) Dew Point ( °F °C ) Humidity (%) Winds ( mph kmh ) Pressure ( in mb ) Visibility ( mi km ) Precip ( " mm )
12:53 am 00:53 Mostly Cloudy 41 5 32 0 70 70 SW 12 19 30.01 1016 10 16 0.00 0.00
1:53 am 01:53 Mostly Cloudy 39 3.9 32 0 76 76 WSW 12 19 30.02 1017 10 16 0.00 0.00
2:53 am 02:53 Cloudy 39 3.9 32 0 76 76 W 8 13 30.03 1017 10 16 0.00 0.00
3:53 am 03:53 Partly Cloudy 39 3.9 32 0 76 76 W 8 13 30.03 1017 10 16 0.00 0.00
4:53 am 04:53 Cloudy 37 2.8 32 0 82 82 W 7 11 30.04 1017 10 16 0.00 0.00
5:53 am 05:53 Cloudy 37 2.8 32 0 82 82 W 3 6 30.07 1018 10 16 0.00 0.00
6:53 am 06:53 Cloudy 36 2.2 31 -0.6 82 82 Calm 30.09 1019 10 16 0.00 0.00
7:53 am 07:53 Cloudy 33 0.6 30 -1.1 89 89 NE 12 19 30.12 1020 10 16 0.00 0.00
8:42 am 08:42 Mostly Cloudy 34 1 30 -1 87 87 NE 12 19 30.18 1022 10 16 0.00 0.00
8:51 am 08:51 Mostly Cloudy 34 1 30 -1 87 87 ENE 16 26 30.18 1022 10 16 0.00 0.00
8:53 am 08:53 Mostly Cloudy 33 0.6 30 -1.1 89 89 ENE 17 28 30.14 1021 10 16 0.00 0.00
9:53 am 09:53 Cloudy 32 0 29 -1.7 88 88 E 20 31 30.14 1021 10 16 0.00 0.00
10:53 am 10:53 Cloudy 33 0.6 29 -1.7 85 85 ENE 20 31 30.16 1022 10 16 0.00 0.00
11:53 am 11:53 Cloudy 35 1.7 30 -1.1 82 82 E 21 33 30.17 1022 10 16 0.00 0.00
12:53 pm 12:53 Cloudy 35 1.7 31 -0.6 85 85 E 18 30 30.16 1022 9 14 0.00 0.00
1:53 pm 13:53 Cloudy with Mist and Fog 35 1.7 32 0 89 89 E 22 35 30.14 1021 6 10 0.00 0.00
2:33 pm 14:33 Cloudy with Mist and Fog 33 0.6 31 -0.6 92 92 E 17 28 30.18 1022 5 8 0.00 0.00
2:53 pm 14:53 Cloudy with Mist and Fog 34 1.1 31 -0.6 89 89 ENE 20 31 30.15 1021 6 10 0.00 0.00
3:11 pm 15:11 Cloudy with Mist and Fog 34 1.1 31 -0.6 89 89 E 18 30 30.17 1022 6 10 0.00 0.00
3:53 pm 15:53 Cloudy with Mist and Fog 34 1.1 31 -0.6 89 89 ENE 18 30 30.15 1021 6 10 0.00 0.00
4:53 pm 16:53 Cloudy with Mist and Fog 32 0 30 -1.1 92 92 E 21 33 30.15 1021 5 8 0.00 0.00
5:53 pm 17:53 Cloudy with Mist and Fog 31 -0.6 30 -1.1 96 96 E 18 30 30.16 1021 4 6 0.00 0.00
6:53 pm 18:53 Cloudy with Mist and Fog 30 -1.1 29 -1.7 96 96 E 17 28 30.16 1021 5 8 0.00 0.00
7:53 pm 19:53 Cloudy 30 -1.1 28 -2.2 92 92 E 18 30 30.16 1021 9 14 0.00 0.00
8:53 pm 20:53 Cloudy 29 -1.7 28 -2.2 96 96 E 15 24 30.17 1022 8 13 0.00 0.00
9:41 pm 21:41 Cloudy with Light Freezing Rain 29 -1.7 28 -2.2 96 96 E 23 37 30.19 1022 6 10 0.00 0.00
9:53 pm 21:53 Cloudy with Light Freezing Rain 29 -1.7 28 -2.2 96 96 E 21 33 30.15 1021 5 8 0.00 0.00
10:28 pm 22:28 Cloudy with Light Freezing Rain 29 -1.7 28 -2.2 96 96 E 21 33 30.19 1022 7 11 0.01 0.25
10:47 pm 22:47 Cloudy with Mist and Fog 28 -2 28 -2 100 100 E 20 31 30.19 1022 6 10 0.02 0.51
10:53 pm 22:53 Cloudy with Mist and Fog 29 -1.7 28 -2.2 96 96 E 18 30 30.15 1021 6 10 0.02 0.51
11:53 pm 23:53 Cloudy 28 -2.2 26 -3.3 92 92 E 21 33 30.14 1021 8 13 0.00 0.00

Powered by AerisWeather